Time,TemperatureF,DewpointF,PressureIn,WindDirection,WindDirectionDegrees,WindSpeedMPH,WindSpeedGustMPH,Humidity,HourlyPrecipIn,Conditions,Clouds,dailyrainin,SoftwareType,DateUTC
2013-01-23 00:03:00,42.3,38.1,30.03,NE,45,0.0,0.0,85,0.00,,---,0.00,VWS V14.01,2013-01-23 08:03:00,
2013-01-23 00:08:00,42.1,37.9,30.03,NE,45,0.0,0.0,85,0.00,,---,0.00,VWS V14.01,2013-01-23 08:08:00,
2013-01-23 00:13:00,42.1,38.2,30.03,NE,45,0.0,0.0,86,0.00,,---,0.00,VWS V14.01,2013-01-23 08:13:00,
2013-01-23 00:18:00,42.1,38.2,30.03,NE,45,0.0,0.0,86,0.00,,---,0.00,VWS V14.01,2013-01-23 08:18:00,
2013-01-23 00:23:00,42.3,38.4,30.03,North,0,0.0,0.0,86,0.00,,---,0.00,VWS V14.01,2013-01-23 08:23:00,
2013-01-23 00:28:00,42.3,38.4,30.03,North,0,0.0,0.0,86,0.00,,---,0.00,VWS V14.01,2013-01-23 08:28:00,
2013-01-23 00:33:00,42.3,38.4,30.03,NE,45,0.0,0.0,86,0.00,,---,0.00,VWS V14.01,2013-01-23 08:33:00,
2013-01-23 00:38:00,42.6,38.7,30.03,NE,45,0.0,0.0,86,0.00,,---,0.00,VWS V14.01,2013-01-23 08:38:00,
2013-01-23 00:43:00,42.8,38.9,30.03,South,180,0.0,0.0,86,0.00,,---,0.00,VWS V14.01,2013-01-23 08:43:00,
2013-01-23 00:48:00,42.8,38.9,30.03,South,180,0.0,0.0,86,0.00,,---,0.00,VWS V14.01,2013-01-23 08:48:00,
2013-01-23 00:53:00,43.0,39.1,30.03,NW,315,0.0,0.0,86,0.00,,---,0.00,VWS V14.01,2013-01-23 08:53:00,
2013-01-23 00:58:00,43.0,39.1,30.03,NNW,338,0.0,0.0,86,0.00,,---,0.00,VWS V14.01,2013-01-23 08:58:00,
2013-01-23 01:03:00,43.0,39.1,30.03,NNW,338,0.0,0.0,86,0.00,,---,0.00,VWS V14.01,2013-01-23 09:03:00,
2013-01-23 01:08:00,43.0,39.1,30.03,NNW,338,0.0,0.0,86,0.00,,---,0.00,VWS V14.01,2013-01-23 09:08:00,
2013-01-23 01:13:00,43.3,39.4,30.00,North,0,0.0,0.0,86,0.00,,---,0.00,VWS V14.01,2013-01-23 09:13:00,
2013-01-23 01:18:00,43.5,39.9,30.00,NNE,22,0.0,0.0,87,0.00,,---,0.00,VWS V14.01,2013-01-23 09:18:00,
2013-01-23 01:24:00,43.7,39.8,30.00,NNE,22,1.1,1.1,86,0.00,,---,0.00,VWS V14.01,2013-01-23 09:24:00,
2013-01-23 01:29:00,43.5,39.6,30.03,NNE,22,0.0,0.0,86,0.00,,---,0.00,VWS V14.01,2013-01-23 09:29:00,
2013-01-23 01:34:00,43.5,39.6,30.03,North,0,0.0,0.0,86,0.00,,---,0.00,VWS V14.01,2013-01-23 09:34:00,
2013-01-23 01:39:00,43.5,39.6,30.03,North,0,0.0,0.0,86,0.00,,---,0.00,VWS V14.01,2013-01-23 09:39:00,
2013-01-23 01:44:00,43.3,39.4,30.03,North,0,0.0,0.0,86,0.00,,---,0.00,VWS V14.01,2013-01-23 09:44:00,
2013-01-23 01:49:00,43.0,39.1,30.03,NE,45,0.0,0.0,86,0.00,,---,0.00,VWS V14.01,2013-01-23 09:49:00,
2013-01-23 01:54:00,43.0,39.1,30.03,NE,45,0.0,0.0,86,0.00,,---,0.00,VWS V14.01,2013-01-23 09:54:00,
2013-01-23 01:59:00,43.3,39.4,30.03,North,0,0.0,0.0,86,0.00,,---,0.00,VWS V14.01,2013-01-23 09:59:00,
2013-01-23 02:04:00,43.2,39.3,30.03,NNE,22,0.0,0.0,86,0.00,,---,0.00,VWS V14.01,2013-01-23 10:04:00,
2013-01-23 02:10:00,43.0,39.1,30.03,NE,45,0.0,0.0,86,0.00,,---,0.00,VWS V14.01,2013-01-23 10:10:00,
2013-01-23 02:15:00,42.8,38.9,30.00,NE,45,0.0,0.0,86,0.00,,---,0.00,VWS V14.01,2013-01-23 10:15:00,
2013-01-23 02:20:00,43.0,39.1,30.00,North,0,0.0,0.0,86,0.00,,---,0.00,VWS V14.01,2013-01-23 10:20:00,
2013-01-23 02:25:00,43.0,39.1,30.00,North,0,0.0,0.0,86,0.00,,---,0.00,VWS V14.01,2013-01-23 10:25:00,
2013-01-23 02:30:00,43.0,39.1,30.03,NNE,22,0.0,0.0,86,0.00,,---,0.00,VWS V14.01,2013-01-23 10:30:00,
2013-01-23 02:35:00,43.0,39.1,30.03,NNE,22,0.0,0.0,86,0.00,,---,0.00,VWS V14.01,2013-01-23 10:35:00,
2013-01-23 02:40:00,43.0,39.1,30.03,NNE,22,0.0,0.0,86,0.00,,---,0.00,VWS V14.01,2013-01-23 10:40:00,
2013-01-23 02:45:00,43.0,39.1,30.03,NNE,22,0.0,0.0,86,0.00,,---,0.00,VWS V14.01,2013-01-23 10:45:00,
2013-01-23 02:50:00,43.0,39.1,30.03,NNE,22,0.0,0.0,86,0.00,,---,0.00,VWS V14.01,2013-01-23 10:50:00,
2013-01-23 02:55:00,43.0,39.1,30.03,NNE,22,0.0,0.0,86,0.00,,---,0.00,VWS V14.01,2013-01-23 10:55:00,
2013-01-23 03:00:00,43.0,39.1,30.03,NNE,22,0.0,0.0,86,0.00,,---,0.00,VWS V14.01,2013-01-23 11:00:00,
2013-01-23 03:05:00,43.0,39.1,30.03,NNE,22,0.0,0.0,86,0.00,,---,0.00,VWS V14.01,2013-01-23 11:05:00,
2013-01-23 03:10:00,43.0,39.1,30.03,NNE,22,0.0,0.0,86,0.00,,---,0.00,VWS V14.01,2013-01-23 11:10:00,
2013-01-23 03:16:00,43.2,39.3,30.03,North,0,0.0,0.0,86,0.00,,---,0.00,VWS V14.01,2013-01-23 11:16:00,
2013-01-23 03:21:00,43.2,39.3,30.03,North,0,0.0,0.0,86,0.00,,---,0.00,VWS V14.01,2013-01-23 11:21:00,
2013-01-23 03:26:00,43.2,39.3,30.03,North,0,0.0,0.0,86,0.00,,---,0.00,VWS V14.01,2013-01-23 11:26:00,
2013-01-23 03:31:00,43.3,39.4,30.03,North,0,0.0,0.0,86,0.00,,---,0.00,VWS V14.01,2013-01-23 11:31:00,
2013-01-23 03:36:00,43.2,39.3,30.03,North,0,0.0,0.0,86,0.00,,---,0.00,VWS V14.01,2013-01-23 11:36:00,
2013-01-23 03:41:00,43.3,39.4,30.03,North,0,0.0,0.0,86,0.00,,---,0.00,VWS V14.01,2013-01-23 11:41:00,
2013-01-23 03:47:00,43.0,39.1,30.00,North,0,0.0,0.0,86,0.00,,---,0.00,VWS V14.01,2013-01-23 11:47:00,
2013-01-23 03:52:00,42.8,38.9,30.00,North,0,0.0,0.0,86,0.00,,---,0.00,VWS V14.01,2013-01-23 11:52:00,
2013-01-23 03:57:00,42.4,38.6,30.00,North,0,0.0,0.0,86,0.00,,---,0.00,VWS V14.01,2013-01-23 11:57:00,
2013-01-23 04:02:00,42.3,38.4,30.00,North,0,0.0,0.0,86,0.00,,---,0.00,VWS V14.01,2013-01-23 12:02:00,
2013-01-23 04:07:00,42.3,38.7,30.00,North,0,0.0,0.0,87,0.00,,---,0.00,VWS V14.01,2013-01-23 12:07:00,
2013-01-23 04:13:00,42.3,38.7,30.00,North,0,0.0,0.0,87,0.00,,---,0.00,VWS V14.01,2013-01-23 12:13:00,
2013-01-23 04:18:00,42.3,38.7,30.00,North,0,0.0,0.0,87,0.00,,---,0.00,VWS V14.01,2013-01-23 12:18:00,
2013-01-23 04:23:00,42.4,38.8,30.00,NNW,338,0.0,0.0,87,0.00,,---,0.00,VWS V14.01,2013-01-23 12:23:00,
2013-01-23 04:28:00,42.8,39.2,30.00,NNW,338,0.0,0.0,87,0.00,,---,0.00,VWS V14.01,2013-01-23 12:28:00,
2013-01-23 04:33:00,42.8,39.2,30.00,NNW,338,0.0,0.0,87,0.00,,---,0.00,VWS V14.01,2013-01-23 12:33:00,
2013-01-23 04:38:00,42.8,39.2,30.00,NNW,338,0.0,0.0,87,0.00,,---,0.00,VWS V14.01,2013-01-23 12:38:00,
2013-01-23 04:43:00,43.0,39.4,30.00,NNW,338,0.0,0.0,87,0.00,,---,0.00,VWS V14.01,2013-01-23 12:43:00,
2013-01-23 04:48:00,43.2,39.6,30.00,WNW,292,0.0,0.0,87,0.00,,---,0.00,VWS V14.01,2013-01-23 12:48:00,
2013-01-23 04:53:00,43.2,39.6,30.00,WNW,292,0.0,0.0,87,0.00,,---,0.00,VWS V14.01,2013-01-23 12:53:00,
2013-01-23 04:58:00,43.3,39.7,30.00,WNW,292,0.0,0.0,87,0.00,,---,0.00,VWS V14.01,2013-01-23 12:58:00,
2013-01-23 05:03:00,43.3,39.7,30.00,NNW,338,0.0,0.0,87,0.00,,---,0.00,VWS V14.01,2013-01-23 13:03:00,
2013-01-23 05:08:00,43.5,39.9,30.00,North,0,0.0,0.0,87,0.00,,---,0.00,VWS V14.01,2013-01-23 13:08:00,
2013-01-23 05:13:00,43.5,39.9,30.00,North,0,0.0,0.0,87,0.00,,---,0.00,VWS V14.01,2013-01-23 13:13:00,
2013-01-23 05:19:00,43.5,39.9,30.00,North,0,0.0,0.0,87,0.00,,---,0.00,VWS V14.01,2013-01-23 13:19:00,
2013-01-23 05:24:00,43.3,39.7,30.00,North,0,0.0,0.0,87,0.00,,---,0.00,VWS V14.01,2013-01-23 13:24:00,
2013-01-23 05:29:00,43.3,39.7,30.00,North,0,0.0,0.0,87,0.00,,---,0.00,VWS V14.01,2013-01-23 13:29:00,
2013-01-23 05:34:00,43.3,39.7,30.00,NE,45,0.0,0.0,87,0.00,,---,0.00,VWS V14.01,2013-01-23 13:34:00,
2013-01-23 05:39:00,43.3,39.7,30.00,NE,45,0.0,0.0,87,0.00,,---,0.00,VWS V14.01,2013-01-23 13:39:00,
2013-01-23 05:44:00,43.3,39.7,30.00,NE,45,0.0,0.0,87,0.00,,---,0.00,VWS V14.01,2013-01-23 13:44:00,
2013-01-23 05:49:00,43.3,39.7,30.00,NE,45,0.0,0.0,87,0.00,,---,0.00,VWS V14.01,2013-01-23 13:49:00,
2013-01-23 05:54:00,43.3,39.7,30.00,NE,45,0.0,0.0,87,0.00,,---,0.00,VWS V14.01,2013-01-23 13:54:00,
2013-01-23 05:59:00,43.2,39.6,29.97,ENE,68,0.0,0.0,87,0.00,,---,0.00,VWS V14.01,2013-01-23 13:59:00,
2013-01-23 06:04:00,43.2,39.6,29.97,East,90,0.0,0.0,87,0.00,,---,0.00,VWS V14.01,2013-01-23 14:04:00,
2013-01-23 06:09:00,43.0,39.4,29.97,East,90,0.0,0.0,87,0.00,,---,0.00,VWS V14.01,2013-01-23 14:09:00,
2013-01-23 06:14:00,42.8,39.2,29.97,East,90,0.0,0.0,87,0.00,,---,0.00,VWS V14.01,2013-01-23 14:14:00,
2013-01-23 06:19:00,43.0,39.4,29.97,East,90,0.0,0.0,87,0.00,,---,0.00,VWS V14.01,2013-01-23 14:19:00,
2013-01-23 06:24:00,43.0,39.4,29.97,North,0,0.0,0.0,87,0.00,,---,0.00,VWS V14.01,2013-01-23 14:24:00,
2013-01-23 06:30:00,43.0,39.4,29.97,North,0,0.0,0.0,87,0.00,,---,0.00,VWS V14.01,2013-01-23 14:30:00,
2013-01-23 06:35:00,43.0,39.4,29.97,North,0,0.0,0.0,87,0.00,,---,0.00,VWS V14.01,2013-01-23 14:35:00,
2013-01-23 06:40:00,43.3,39.7,29.97,North,0,0.0,0.0,87,0.00,,---,0.00,VWS V14.01,2013-01-23 14:40:00,
2013-01-23 06:45:00,43.0,39.1,29.94,North,0,0.0,0.0,86,0.00,,---,0.00,VWS V14.01,2013-01-23 14:45:00,
2013-01-23 06:50:00,43.2,39.3,29.94,North,0,0.0,0.0,86,0.00,,---,0.00,VWS V14.01,2013-01-23 14:50:00,
2013-01-23 06:55:00,43.3,39.7,29.94,NW,315,0.0,0.0,87,0.00,,---,0.00,VWS V14.01,2013-01-23 14:55:00,
2013-01-23 07:00:00,43.2,39.6,29.97,NW,315,0.0,0.0,87,0.00,,---,0.00,VWS V14.01,2013-01-23 15:00:00,
2013-01-23 07:05:00,43.2,39.6,29.97,NW,315,0.0,0.0,87,0.00,,---,0.00,VWS V14.01,2013-01-23 15:05:00,
2013-01-23 07:10:00,43.2,39.6,29.97,NW,315,0.0,0.0,87,0.00,,---,0.00,VWS V14.01,2013-01-23 15:10:00,
2013-01-23 07:15:00,43.2,39.6,29.97,NW,315,0.0,0.0,87,0.00,,---,0.00,VWS V14.01,2013-01-23 15:15:00,
2013-01-23 07:20:00,43.2,39.6,29.97,NW,315,0.0,0.0,87,0.00,,---,0.00,VWS V14.01,2013-01-23 15:20:00,
2013-01-23 07:25:00,43.2,39.6,29.97,NW,315,0.0,0.0,87,0.00,,---,0.00,VWS V14.01,2013-01-23 15:25:00,
2013-01-23 07:30:00,43.3,39.7,29.97,NW,315,0.0,0.0,87,0.00,,---,0.00,VWS V14.01,2013-01-23 15:30:00,
2013-01-23 07:35:00,43.5,39.9,29.97,NE,45,0.0,0.0,87,0.00,,---,0.00,VWS V14.01,2013-01-23 15:35:00,
2013-01-23 07:40:00,43.5,39.9,29.97,NE,45,0.0,0.0,87,0.00,,---,0.00,VWS V14.01,2013-01-23 15:40:00,
2013-01-23 07:45:00,43.5,39.9,29.94,NE,45,0.0,0.0,87,0.00,,---,0.00,VWS V14.01,2013-01-23 15:45:00,
2013-01-23 07:50:00,43.7,40.1,29.94,NW,315,0.0,1.1,87,0.00,,---,0.00,VWS V14.01,2013-01-23 15:50:00,
2013-01-23 07:55:00,43.9,40.3,29.94,North,0,0.0,0.0,87,0.00,,---,0.00,VWS V14.01,2013-01-23 15:55:00,
2013-01-23 08:00:00,44.1,40.5,29.97,North,0,0.0,0.0,87,0.00,,---,0.00,VWS V14.01,2013-01-23 16:00:00,
2013-01-23 08:05:00,44.2,40.6,29.97,North,0,0.0,0.0,87,0.00,,---,0.00,VWS V14.01,2013-01-23 16:05:00,
2013-01-23 08:10:00,44.6,41.0,29.97,North,0,0.0,0.0,87,0.00,,---,0.00,VWS V14.01,2013-01-23 16:10:00,
2013-01-23 08:15:00,44.8,41.2,29.97,North,0,0.0,0.0,87,0.00,,---,0.00,VWS V14.01,2013-01-23 16:15:00,
2013-01-23 08:21:00,45.1,41.2,29.97,North,0,0.0,0.0,86,0.00,,---,0.00,VWS V14.01,2013-01-23 16:21:00,
2013-01-23 08:26:00,45.5,41.6,29.97,North,0,0.0,0.0,86,0.00,,---,0.00,VWS V14.01,2013-01-23 16:26:00,
2013-01-23 08:31:00,45.9,41.9,29.97,North,0,2.0,2.0,86,0.00,,---,0.00,VWS V14.01,2013-01-23 16:31:00,
2013-01-23 08:36:00,45.9,41.9,29.97,North,0,0.0,0.0,86,0.00,,---,0.00,VWS V14.01,2013-01-23 16:36:00,
2013-01-23 08:41:00,46.2,42.0,29.97,NNE,22,0.0,0.0,85,0.00,,---,0.00,VWS V14.01,2013-01-23 16:41:00,
2013-01-23 08:46:00,46.2,41.7,29.97,ESE,112,0.0,0.0,84,0.00,,---,0.00,VWS V14.01,2013-01-23 16:46:00,
2013-01-23 08:51:00,46.4,41.8,29.97,ESE,112,0.0,0.0,84,0.00,,---,0.00,VWS V14.01,2013-01-23 16:51:00,
2013-01-23 08:56:00,46.6,41.7,29.97,North,0,0.0,0.0,83,0.00,,---,0.00,VWS V14.01,2013-01-23 16:56:00,
2013-01-23 09:01:00,46.8,41.9,29.97,North,0,0.0,1.3,83,0.00,,---,0.00,VWS V14.01,2013-01-23 17:01:00,
2013-01-23 09:06:00,47.1,41.9,29.97,NNW,338,0.0,0.0,82,0.00,,---,0.00,VWS V14.01,2013-01-23 17:06:00,
2013-01-23 09:11:00,47.5,42.3,29.97,NNW,338,0.0,0.0,82,0.00,,---,0.00,VWS V14.01,2013-01-23 17:11:00,
2013-01-23 09:16:00,48.0,42.8,30.03,SW,225,0.0,0.0,82,0.00,,---,0.00,VWS V14.01,2013-01-23 17:16:00,
2013-01-23 09:21:00,48.2,42.7,30.03,WNW,292,0.9,1.1,81,0.00,,---,0.00,VWS V14.01,2013-01-23 17:21:00,
2013-01-23 09:26:00,48.2,42.3,30.03,West,270,1.6,1.6,80,0.00,,---,0.00,VWS V14.01,2013-01-23 17:26:00,
2013-01-23 09:31:00,48.2,41.7,30.03,NW,315,2.0,2.0,78,0.00,,---,0.00,VWS V14.01,2013-01-23 17:31:00,
2013-01-23 09:37:00,48.4,41.2,30.03,NNW,338,0.0,0.0,76,0.00,,---,0.00,VWS V14.01,2013-01-23 17:37:00,
2013-01-23 09:42:00,48.7,41.5,30.03,NW,315,0.0,0.0,76,0.00,,---,0.00,VWS V14.01,2013-01-23 17:42:00,
2013-01-23 09:47:00,49.3,42.0,30.03,North,0,0.0,0.0,76,0.00,,---,0.00,VWS V14.01,2013-01-23 17:47:00,
2013-01-23 09:52:00,49.5,41.9,30.03,NNW,338,0.0,0.0,75,0.00,,---,0.00,VWS V14.01,2013-01-23 17:52:00,
2013-01-23 09:57:00,49.6,42.0,30.03,West,270,0.0,0.0,75,0.00,,---,0.00,VWS V14.01,2013-01-23 17:57:00,
2013-01-23 10:02:00,50.5,42.9,30.00,NW,315,0.0,0.0,75,0.00,,---,0.00,VWS V14.01,2013-01-23 18:02:00,
2013-01-23 10:07:00,50.7,42.4,30.00,WSW,248,0.0,0.0,73,0.00,,---,0.00,VWS V14.01,2013-01-23 18:07:00,
2013-01-23 10:12:00,50.9,42.6,30.00,NNW,338,0.0,0.9,73,0.00,,---,0.00,VWS V14.01,2013-01-23 18:12:00,
2013-01-23 10:17:00,51.8,43.1,30.03,NNW,338,0.9,2.0,72,0.00,,---,0.00,VWS V14.01,2013-01-23 18:17:00,
2013-01-23 10:22:00,52.3,42.5,30.03,NNW,338,0.0,0.9,69,0.00,,---,0.00,VWS V14.01,2013-01-23 18:22:00,
2013-01-23 10:27:00,53.1,43.5,30.03,North,0,0.0,1.6,70,0.00,,---,0.00,VWS V14.01,2013-01-23 18:27:00,
2013-01-23 10:32:00,53.2,42.6,30.06,NNW,338,0.0,0.0,67,0.00,,---,0.00,VWS V14.01,2013-01-23 18:32:00,
2013-01-23 10:37:00,53.4,42.4,30.06,West,270,0.0,2.0,66,0.00,,---,0.00,VWS V14.01,2013-01-23 18:37:00,
2013-01-23 10:42:00,53.8,42.3,30.06,NW,315,0.0,0.0,65,0.00,,---,0.00,VWS V14.01,2013-01-23 18:42:00,
2013-01-23 10:47:00,54.3,42.0,30.06,WSW,248,0.0,0.0,63,0.00,,---,0.00,VWS V14.01,2013-01-23 18:47:00,
2013-01-23 10:52:00,54.9,42.5,30.06,NNW,338,0.0,0.0,63,0.00,,---,0.00,VWS V14.01,2013-01-23 18:52:00,
2013-01-23 10:57:00,55.2,42.4,30.06,ENE,68,0.0,0.0,62,0.00,,---,0.00,VWS V14.01,2013-01-23 18:57:00,
2013-01-23 11:03:00,55.8,42.5,30.03,ENE,68,0.0,0.0,61,0.00,,---,0.00,VWS V14.01,2013-01-23 19:03:00,
2013-01-23 11:08:00,55.6,41.9,30.03,South,180,0.0,0.0,60,0.00,,---,0.00,VWS V14.01,2013-01-23 19:08:00,
2013-01-23 11:13:00,55.8,42.1,30.06,NNW,338,1.3,1.3,60,0.00,,---,0.00,VWS V14.01,2013-01-23 19:13:00,
2013-01-23 11:18:00,55.8,40.8,30.06,NNE,22,0.0,0.0,57,0.00,,---,0.00,VWS V14.01,2013-01-23 19:18:00,
2013-01-23 11:23:00,56.1,41.1,30.06,ENE,68,0.0,0.0,57,0.00,,---,0.00,VWS V14.01,2013-01-23 19:23:00,
2013-01-23 11:28:00,56.3,41.3,30.03,ENE,68,2.9,3.8,57,0.00,,---,0.00,VWS V14.01,2013-01-23 19:28:00,
2013-01-23 11:33:00,56.1,40.7,30.03,ESE,112,1.3,1.3,56,0.00,,---,0.00,VWS V14.01,2013-01-23 19:33:00,
2013-01-23 11:38:00,56.1,40.7,30.03,NE,45,0.9,1.3,56,0.00,,---,0.00,VWS V14.01,2013-01-23 19:38:00,
2013-01-23 11:43:00,56.7,41.6,30.03,ESE,112,3.6,3.6,57,0.00,,---,0.00,VWS V14.01,2013-01-23 19:43:00,
2013-01-23 11:48:00,56.8,41.3,30.03,NE,45,1.1,2.0,56,0.00,,---,0.00,VWS V14.01,2013-01-23 19:48:00,
2013-01-23 11:54:00,57.0,41.0,30.03,ESE,112,0.0,0.0,55,0.00,,---,0.00,VWS V14.01,2013-01-23 19:54:00,
2013-01-23 11:59:00,57.4,41.4,30.00,SSW,202,2.2,2.2,55,0.00,,---,0.00,VWS V14.01,2013-01-23 19:59:00,
2013-01-23 12:04:00,57.9,41.4,30.00,East,90,0.0,0.0,54,0.00,,---,0.00,VWS V14.01,2013-01-23 20:04:00,
2013-01-23 12:09:00,58.5,41.9,30.00,West,270,0.0,0.0,54,0.00,,---,0.00,VWS V14.01,2013-01-23 20:09:00,
2013-01-23 12:14:00,58.5,40.9,30.03,East,90,0.9,0.9,52,0.00,,---,0.00,VWS V14.01,2013-01-23 20:14:00,
2013-01-23 12:19:00,59.0,40.9,30.03,NE,45,2.7,2.7,51,0.00,,---,0.00,VWS V14.01,2013-01-23 20:19:00,
2013-01-23 12:24:00,59.4,41.2,30.03,East,90,1.1,1.3,51,0.00,,---,0.00,VWS V14.01,2013-01-23 20:24:00,
2013-01-23 12:29:00,59.5,40.9,30.03,SSW,202,0.0,0.0,50,0.00,,---,0.00,VWS V14.01,2013-01-23 20:29:00,
2013-01-23 12:34:00,59.9,41.8,30.03,East,90,1.3,2.0,51,0.00,,---,0.00,VWS V14.01,2013-01-23 20:34:00,
2013-01-23 12:39:00,60.3,41.0,30.03,ENE,68,0.0,1.6,49,0.00,,---,0.00,VWS V14.01,2013-01-23 20:39:00,
2013-01-23 12:44:00,60.8,41.0,30.03,NW,315,0.0,0.0,48,0.00,,---,0.00,VWS V14.01,2013-01-23 20:44:00,
2013-01-23 12:49:00,60.8,41.0,30.03,ENE,68,1.6,1.6,48,0.00,,---,0.00,VWS V14.01,2013-01-23 20:49:00,
2013-01-23 12:54:00,61.2,40.8,30.03,South,180,0.0,0.0,47,0.00,,---,0.00,VWS V14.01,2013-01-23 20:54:00,
2013-01-23 12:59:00,61.3,41.0,30.03,SE,135,0.9,2.0,47,0.00,,---,0.00,VWS V14.01,2013-01-23 20:59:00,
2013-01-23 13:04:00,61.3,40.4,30.03,ESE,112,0.0,0.0,46,0.00,,---,0.00,VWS V14.01,2013-01-23 21:04:00,
2013-01-23 13:10:00,61.5,40.6,30.03,SSE,158,0.0,0.0,46,0.00,,---,0.00,VWS V14.01,2013-01-23 21:10:00,
2013-01-23 13:15:00,61.7,40.7,30.00,East,90,0.0,0.0,46,0.00,,---,0.00,VWS V14.01,2013-01-23 21:15:00,
2013-01-23 13:20:00,61.3,38.7,30.00,ESE,112,1.6,1.6,43,0.00,,---,0.00,VWS V14.01,2013-01-23 21:20:00,
2013-01-23 13:25:00,60.8,38.2,30.00,ESE,112,1.1,1.1,43,0.00,,---,0.00,VWS V14.01,2013-01-23 21:25:00,
2013-01-23 13:30:00,60.8,38.2,30.03,ESE,112,2.5,2.5,43,0.00,,---,0.00,VWS V14.01,2013-01-23 21:30:00,
2013-01-23 13:35:00,60.8,38.8,30.03,ENE,68,1.1,2.0,44,0.00,,---,0.00,VWS V14.01,2013-01-23 21:35:00,
2013-01-23 13:40:00,60.6,39.2,30.03,ENE,68,0.9,1.3,45,0.00,,---,0.00,VWS V14.01,2013-01-23 21:40:00,
2013-01-23 13:45:00,60.4,38.4,30.00,SSW,202,2.7,2.7,44,0.00,,---,0.00,VWS V14.01,2013-01-23 21:45:00,
2013-01-23 13:50:00,60.4,38.4,30.00,East,90,1.3,2.5,44,0.00,,---,0.00,VWS V14.01,2013-01-23 21:50:00,
2013-01-23 13:55:00,60.4,38.4,30.00,SSE,158,0.0,0.0,44,0.00,,---,0.00,VWS V14.01,2013-01-23 21:55:00,
2013-01-23 14:01:00,60.8,38.8,30.00,SSE,158,0.0,0.0,44,0.00,,---,0.00,VWS V14.01,2013-01-23 22:01:00,
2013-01-23 14:06:00,60.8,39.3,30.00,East,90,0.0,0.0,45,0.00,,---,0.00,VWS V14.01,2013-01-23 22:06:00,
2013-01-23 14:11:00,60.6,39.2,30.00,SSE,158,0.0,0.0,45,0.00,,---,0.00,VWS V14.01,2013-01-23 22:11:00,
2013-01-23 14:16:00,60.3,38.3,30.00,ESE,112,0.9,2.9,44,0.00,,---,0.00,VWS V14.01,2013-01-23 22:16:00,
2013-01-23 14:21:00,59.9,38.5,30.00,SSW,202,2.0,2.9,45,0.00,,---,0.00,VWS V14.01,2013-01-23 22:21:00,
2013-01-23 14:26:00,59.4,38.0,30.00,SE,135,2.7,3.6,45,0.00,,---,0.00,VWS V14.01,2013-01-23 22:26:00,
2013-01-23 14:31:00,58.8,38.1,30.03,SW,225,2.5,3.8,46,0.00,,---,0.00,VWS V14.01,2013-01-23 22:31:00,
2013-01-23 14:36:00,58.3,37.6,30.03,SW,225,0.0,2.0,46,0.00,,---,0.00,VWS V14.01,2013-01-23 22:36:00,
2013-01-23 14:41:00,57.9,37.8,30.03,SE,135,1.6,2.0,47,0.00,,---,0.00,VWS V14.01,2013-01-23 22:41:00,
2013-01-23 14:46:00,57.6,37.5,30.03,West,270,1.1,1.3,47,0.00,,---,0.00,VWS V14.01,2013-01-23 22:46:00,
2013-01-23 14:51:00,57.0,37.5,30.03,NNW,338,1.1,1.1,48,0.00,,---,0.00,VWS V14.01,2013-01-23 22:51:00,
2013-01-23 14:57:00,56.7,38.2,30.03,WNW,292,0.0,0.9,50,0.00,,---,0.00,VWS V14.01,2013-01-23 22:57:00,
2013-01-23 15:02:00,56.3,38.4,30.03,East,90,0.0,0.0,51,0.00,,---,0.00,VWS V14.01,2013-01-23 23:02:00,
2013-01-23 15:07:00,55.8,38.9,30.03,South,180,1.6,1.6,53,0.00,,---,0.00,VWS V14.01,2013-01-23 23:07:00,
2013-01-23 15:12:00,55.0,42.3,30.03,SSW,202,1.1,1.3,62,0.00,,---,0.00,VWS V14.01,2013-01-23 23:12:00,
2013-01-23 15:17:00,54.1,41.4,30.03,ESE,112,0.0,1.1,62,0.00,,---,0.00,VWS V14.01,2013-01-23 23:17:00,
2013-01-23 15:22:00,53.6,41.7,30.03,SE,135,1.1,2.2,64,0.00,,---,0.00,VWS V14.01,2013-01-23 23:22:00,
2013-01-23 15:27:00,53.1,42.8,30.03,NE,45,0.0,0.0,68,0.00,,---,0.00,VWS V14.01,2013-01-23 23:27:00,
2013-01-23 15:32:00,52.7,43.6,30.03,East,90,0.0,0.0,71,0.00,,---,0.00,VWS V14.01,2013-01-23 23:32:00,
2013-01-23 15:37:00,52.5,43.4,30.03,East,90,0.0,0.0,71,0.00,,---,0.00,VWS V14.01,2013-01-23 23:37:00,
2013-01-23 15:42:00,52.3,43.6,30.03,East,90,0.0,0.0,72,0.00,,---,0.00,VWS V14.01,2013-01-23 23:42:00,
2013-01-23 15:47:00,52.2,43.4,30.03,ENE,68,0.0,0.0,72,0.00,,---,0.00,VWS V14.01,2013-01-23 23:47:00,
2013-01-23 15:52:00,51.8,43.8,30.03,ENE,68,0.0,0.0,74,0.00,,---,0.00,VWS V14.01,2013-01-23 23:52:00,
2013-01-23 15:57:00,51.6,44.3,30.03,ENE,68,0.0,0.0,76,0.00,,---,0.00,VWS V14.01,2013-01-23 23:57:00,
2013-01-23 16:02:00,51.6,44.7,30.03,ENE,68,0.0,0.0,77,0.00,,---,0.00,VWS V14.01,2013-01-24 00:02:00,
2013-01-23 16:08:00,51.4,44.5,30.03,ENE,68,0.0,0.0,77,0.00,,---,0.00,VWS V14.01,2013-01-24 00:08:00,
2013-01-23 16:13:00,51.3,45.0,30.03,East,90,0.0,0.0,79,0.04,,---,0.04,VWS V14.01,2013-01-24 00:13:00,
2013-01-23 16:18:00,51.1,45.1,30.03,East,90,0.0,0.0,80,0.04,,---,0.04,VWS V14.01,2013-01-24 00:18:00,
2013-01-23 16:23:00,51.1,45.1,30.03,NNE,22,1.3,1.3,80,0.04,,---,0.04,VWS V14.01,2013-01-24 00:23:00,
2013-01-23 16:28:00,51.1,45.1,30.03,NE,45,0.0,0.0,80,0.04,,---,0.04,VWS V14.01,2013-01-24 00:28:00,
2013-01-23 16:33:00,50.9,45.6,30.03,NNE,22,1.1,1.1,82,0.04,,---,0.04,VWS V14.01,2013-01-24 00:33:00,
2013-01-23 16:38:00,50.9,45.6,30.03,NNE,22,0.0,0.9,82,0.04,,---,0.04,VWS V14.01,2013-01-24 00:38:00,
2013-01-23 16:43:00,50.7,45.8,30.00,North,0,2.7,2.7,83,0.04,,---,0.04,VWS V14.01,2013-01-24 00:43:00,
2013-01-23 16:48:00,50.9,47.2,30.00,NE,45,0.0,2.7,87,0.04,,---,0.04,VWS V14.01,2013-01-24 00:48:00,
2013-01-23 16:53:00,50.7,46.7,30.00,NNE,22,1.1,1.1,86,0.04,,---,0.04,VWS V14.01,2013-01-24 00:53:00,
2013-01-23 16:58:00,50.5,46.2,30.03,NNE,22,0.0,1.1,85,0.04,,---,0.04,VWS V14.01,2013-01-24 00:58:00,
2013-01-23 17:03:00,50.5,46.5,30.03,North,0,2.5,2.5,86,0.04,,---,0.04,VWS V14.01,2013-01-24 01:03:00,
2013-01-23 17:08:00,50.4,46.3,30.03,NW,315,2.0,2.5,86,0.04,,---,0.04,VWS V14.01,2013-01-24 01:08:00,
2013-01-23 17:13:00,50.2,46.8,30.03,NW,315,0.0,0.0,88,0.04,,---,0.08,VWS V14.01,2013-01-24 01:13:00,
2013-01-23 17:18:00,50.2,46.8,30.03,NW,315,3.4,3.4,88,0.04,,---,0.08,VWS V14.01,2013-01-24 01:18:00,
2013-01-23 17:23:00,50.2,47.1,30.03,NW,315,1.3,2.7,89,0.04,,---,0.08,VWS V14.01,2013-01-24 01:23:00,
2013-01-23 17:28:00,50.4,48.4,30.03,WNW,292,2.9,2.9,93,0.04,,---,0.08,VWS V14.01,2013-01-24 01:28:00,
2013-01-23 17:33:00,50.4,48.4,30.03,West,270,0.9,1.1,93,0.04,,---,0.08,VWS V14.01,2013-01-24 01:33:00,
2013-01-23 17:38:00,50.4,48.7,30.03,West,270,2.0,2.0,94,0.04,,---,0.08,VWS V14.01,2013-01-24 01:38:00,
2013-01-23 17:44:00,50.4,48.7,30.03,NNW,338,5.4,5.4,94,0.04,,---,0.08,VWS V14.01,2013-01-24 01:44:00,
2013-01-23 17:49:00,50.5,48.9,30.03,North,0,3.1,3.1,94,0.04,,---,0.08,VWS V14.01,2013-01-24 01:49:00,
2013-01-23 17:54:00,50.4,48.7,30.03,NNW,338,3.6,4.0,94,0.04,,---,0.08,VWS V14.01,2013-01-24 01:54:00,
2013-01-23 17:59:00,50.4,49.0,30.03,NNW,338,2.9,6.3,95,0.04,,---,0.08,VWS V14.01,2013-01-24 01:59:00,
2013-01-23 18:04:00,50.4,49.0,30.03,WNW,292,2.7,3.8,95,0.04,,---,0.08,VWS V14.01,2013-01-24 02:04:00,
2013-01-23 18:09:00,50.2,48.8,30.03,WNW,292,2.5,2.5,95,0.04,,---,0.08,VWS V14.01,2013-01-24 02:09:00,
2013-01-23 18:14:00,50.2,48.8,30.03,North,0,2.5,4.0,95,0.00,,---,0.08,VWS V14.01,2013-01-24 02:14:00,
2013-01-23 18:19:00,50.0,48.6,30.03,NE,45,1.6,1.6,95,0.00,,---,0.08,VWS V14.01,2013-01-24 02:19:00,
2013-01-23 18:24:00,50.0,48.6,30.03,NNW,338,3.1,3.1,95,0.00,,---,0.08,VWS V14.01,2013-01-24 02:24:00,
2013-01-23 18:29:00,50.0,48.6,30.03,NNE,22,0.0,1.6,95,0.00,,---,0.08,VWS V14.01,2013-01-24 02:29:00,
2013-01-23 18:34:00,49.8,48.5,30.03,NNW,338,0.9,0.9,95,0.00,,---,0.08,VWS V14.01,2013-01-24 02:34:00,
2013-01-23 18:39:00,49.8,48.5,30.03,NNW,338,1.3,2.5,95,0.00,,---,0.08,VWS V14.01,2013-01-24 02:39:00,
2013-01-23 18:44:00,49.8,48.5,30.06,NNW,338,0.0,0.0,95,0.00,,---,0.08,VWS V14.01,2013-01-24 02:44:00,
2013-01-23 18:49:00,49.8,48.5,30.06,NNW,338,0.9,0.9,95,0.00,,---,0.08,VWS V14.01,2013-01-24 02:49:00,
2013-01-23 18:54:00,49.8,48.5,30.06,West,270,0.0,0.0,95,0.00,,---,0.08,VWS V14.01,2013-01-24 02:54:00,
2013-01-23 18:59:00,49.6,48.5,30.06,WNW,292,0.0,0.0,96,0.00,,---,0.08,VWS V14.01,2013-01-24 02:59:00,
2013-01-23 19:04:00,49.8,48.7,30.06,NNW,338,3.4,3.4,96,0.00,,---,0.08,VWS V14.01,2013-01-24 03:04:00,
2013-01-23 19:09:00,49.8,49.3,30.06,WNW,292,2.0,2.0,98,0.00,,---,0.08,VWS V14.01,2013-01-24 03:09:00,
2013-01-23 19:15:00,49.6,49.1,30.06,West,270,2.2,4.0,98,0.04,,---,0.12,VWS V14.01,2013-01-24 03:15:00,
2013-01-23 19:20:00,49.6,49.1,30.06,North,0,3.4,3.4,98,0.04,,---,0.12,VWS V14.01,2013-01-24 03:20:00,
2013-01-23 19:25:00,49.5,48.9,30.06,NNW,338,3.8,3.8,98,0.04,,---,0.12,VWS V14.01,2013-01-24 03:25:00,
2013-01-23 19:30:00,49.3,48.7,30.06,WNW,292,3.1,5.8,98,0.04,,---,0.12,VWS V14.01,2013-01-24 03:30:00,
2013-01-23 19:35:00,49.1,48.6,30.06,NW,315,4.9,4.9,98,0.04,,---,0.12,VWS V14.01,2013-01-24 03:35:00,
2013-01-23 19:40:00,49.1,48.6,30.06,North,0,2.0,3.1,98,0.04,,---,0.12,VWS V14.01,2013-01-24 03:40:00,
2013-01-23 19:45:00,49.1,48.6,30.06,WSW,248,4.0,5.6,98,0.04,,---,0.12,VWS V14.01,2013-01-24 03:45:00,
2013-01-23 19:50:00,49.1,48.6,30.06,NNW,338,3.4,5.4,98,0.04,,---,0.12,VWS V14.01,2013-01-24 03:50:00,
2013-01-23 19:55:00,49.1,48.6,30.06,NW,315,3.1,3.8,98,0.04,,---,0.12,VWS V14.01,2013-01-24 03:55:00,
2013-01-23 20:00:00,48.9,48.4,30.03,NNE,22,2.5,3.1,98,0.04,,---,0.12,VWS V14.01,2013-01-24 04:00:00,
2013-01-23 20:05:00,48.9,48.4,30.03,NNW,338,2.9,3.8,98,0.04,,---,0.12,VWS V14.01,2013-01-24 04:05:00,
2013-01-23 20:10:00,48.9,48.4,30.03,NNW,338,0.0,1.6,98,0.04,,---,0.12,VWS V14.01,2013-01-24 04:10:00,
2013-01-23 20:16:00,48.9,48.4,30.06,NE,45,2.0,2.9,98,0.00,,---,0.12,VWS V14.01,2013-01-24 04:16:00,
2013-01-23 20:21:00,48.9,48.4,30.06,North,0,3.6,3.6,98,0.00,,---,0.12,VWS V14.01,2013-01-24 04:21:00,
2013-01-23 20:26:00,48.9,48.4,30.06,NNW,338,3.1,3.6,98,0.00,,---,0.12,VWS V14.01,2013-01-24 04:26:00,
2013-01-23 20:31:00,49.1,48.6,30.06,North,0,3.6,3.6,98,0.00,,---,0.12,VWS V14.01,2013-01-24 04:31:00,
2013-01-23 20:36:00,49.1,48.6,30.06,NNE,22,2.7,2.9,98,0.00,,---,0.12,VWS V14.01,2013-01-24 04:36:00,
2013-01-23 20:41:00,49.3,48.7,30.06,North,0,3.1,4.3,98,0.00,,---,0.12,VWS V14.01,2013-01-24 04:41:00,
2013-01-23 20:46:00,49.3,48.7,30.06,NNW,338,4.7,4.7,98,0.00,,---,0.12,VWS V14.01,2013-01-24 04:46:00,
2013-01-23 20:51:00,49.3,48.7,30.06,NW,315,2.9,4.9,98,0.00,,---,0.12,VWS V14.01,2013-01-24 04:51:00,
2013-01-23 20:56:00,49.3,48.7,30.06,NW,315,2.7,3.6,98,0.00,,---,0.12,VWS V14.01,2013-01-24 04:56:00,
2013-01-23 21:00:00,49.3,48.7,30.06,NNW,338,4.0,4.3,98,0.00,,---,0.12,VWS V14.01,2013-01-24 05:00:00,
2013-01-23 21:01:00,49.3,48.7,30.06,NW,315,2.5,4.0,98,0.00,,---,0.12,VWS V14.01,2013-01-24 05:01:00,
2013-01-23 21:02:00,49.3,48.7,30.06,WNW,292,3.8,3.8,98,0.00,,---,0.12,VWS V14.01,2013-01-24 05:02:00,
2013-01-23 21:07:00,49.3,48.7,30.06,NW,315,1.6,2.5,98,0.00,,---,0.12,VWS V14.01,2013-01-24 05:07:00,
2013-01-23 21:12:00,49.3,48.7,30.06,NW,315,2.7,2.7,98,0.00,,---,0.12,VWS V14.01,2013-01-24 05:12:00,
2013-01-23 21:17:00,49.3,48.7,30.06,NW,315,2.0,3.4,98,0.00,,---,0.12,VWS V14.01,2013-01-24 05:17:00,
2013-01-23 21:22:00,49.3,48.7,30.06,WNW,292,2.2,4.0,98,0.00,,---,0.12,VWS V14.01,2013-01-24 05:22:00,
2013-01-23 21:27:00,49.3,48.7,30.06,North,0,3.6,3.6,98,0.00,,---,0.12,VWS V14.01,2013-01-24 05:27:00,
2013-01-23 21:32:00,49.3,48.7,30.06,NE,45,2.0,3.1,98,0.00,,---,0.12,VWS V14.01,2013-01-24 05:32:00,
2013-01-23 21:37:00,49.1,48.6,30.06,NW,315,0.9,1.6,98,0.00,,---,0.12,VWS V14.01,2013-01-24 05:37:00,
2013-01-23 21:42:00,49.1,48.6,30.06,North,0,2.5,3.6,98,0.00,,---,0.12,VWS V14.01,2013-01-24 05:42:00,
2013-01-23 21:47:00,49.1,48.6,30.09,NW,315,1.6,2.7,98,0.00,,---,0.12,VWS V14.01,2013-01-24 05:47:00,
2013-01-23 21:53:00,49.1,48.6,30.09,NNE,22,4.3,4.7,98,0.00,,---,0.12,VWS V14.01,2013-01-24 05:53:00,
2013-01-23 21:58:00,49.1,48.6,30.06,NW,315,2.5,3.4,98,0.00,,---,0.12,VWS V14.01,2013-01-24 05:58:00,
2013-01-23 22:03:00,48.9,48.4,30.06,WNW,292,2.7,3.1,98,0.00,,---,0.12,VWS V14.01,2013-01-24 06:03:00,
2013-01-23 22:08:00,48.9,48.4,30.06,NNE,22,5.4,5.6,98,0.00,,---,0.12,VWS V14.01,2013-01-24 06:08:00,
2013-01-23 22:13:00,48.9,48.4,30.06,WNW,292,2.7,3.1,98,0.00,,---,0.12,VWS V14.01,2013-01-24 06:13:00,
2013-01-23 22:18:00,48.9,48.4,30.06,NNW,338,2.5,4.5,98,0.00,,---,0.12,VWS V14.01,2013-01-24 06:18:00,
2013-01-23 22:23:00,48.7,48.2,30.06,NNW,338,4.9,4.9,98,0.00,,---,0.12,VWS V14.01,2013-01-24 06:23:00,
2013-01-23 22:28:00,48.7,48.2,30.06,NW,315,5.6,5.6,98,0.00,,---,0.12,VWS V14.01,2013-01-24 06:28:00,
2013-01-23 22:33:00,48.7,48.2,30.06,NNW,338,3.4,4.5,98,0.00,,---,0.12,VWS V14.01,2013-01-24 06:33:00,
2013-01-23 22:38:00,48.7,48.2,30.06,NNW,338,3.6,4.3,98,0.00,,---,0.12,VWS V14.01,2013-01-24 06:38:00,
2013-01-23 22:43:00,48.7,48.2,30.06,North,0,2.7,5.4,98,0.00,,---,0.12,VWS V14.01,2013-01-24 06:43:00,
2013-01-23 22:48:00,48.7,48.2,30.06,NNW,338,5.4,5.4,98,0.00,,---,0.12,VWS V14.01,2013-01-24 06:48:00,
2013-01-23 22:53:00,48.7,48.2,30.06,NW,315,2.9,3.8,98,0.00,,---,0.12,VWS V14.01,2013-01-24 06:53:00,
2013-01-23 22:58:00,48.7,48.2,30.06,NE,45,6.5,6.5,98,0.00,,---,0.12,VWS V14.01,2013-01-24 06:58:00,
2013-01-23 23:03:00,48.7,48.2,30.06,NNW,338,3.8,4.9,98,0.00,,---,0.12,VWS V14.01,2013-01-24 07:03:00,
2013-01-23 23:08:00,48.6,48.0,30.06,WNW,292,2.5,2.5,98,0.00,,---,0.12,VWS V14.01,2013-01-24 07:08:00,
2013-01-23 23:14:00,48.7,48.2,30.06,North,0,1.1,3.6,98,0.00,,---,0.12,VWS V14.01,2013-01-24 07:14:00,
2013-01-23 23:19:00,48.6,48.0,30.06,NNW,338,2.9,3.8,98,0.00,,---,0.12,VWS V14.01,2013-01-24 07:19:00,
2013-01-23 23:24:00,48.6,48.0,30.06,WNW,292,3.1,7.8,98,0.00,,---,0.12,VWS V14.01,2013-01-24 07:24:00,
2013-01-23 23:29:00,48.6,48.0,30.06,NNW,338,3.8,7.6,98,0.00,,---,0.12,VWS V14.01,2013-01-24 07:29:00,
2013-01-23 23:34:00,48.6,48.0,30.06,NNE,22,3.6,4.3,98,0.00,,---,0.12,VWS V14.01,2013-01-24 07:34:00,
2013-01-23 23:39:00,48.6,48.0,30.06,NNW,338,2.0,6.0,98,0.00,,---,0.12,VWS V14.01,2013-01-24 07:39:00,
2013-01-23 23:44:00,48.6,48.0,30.06,North,0,3.1,6.0,98,0.00,,---,0.12,VWS V14.01,2013-01-24 07:44:00,
2013-01-23 23:49:00,48.4,47.8,30.06,NNW,338,3.1,6.5,98,0.00,,---,0.12,VWS V14.01,2013-01-24 07:49:00,
2013-01-23 23:54:00,48.4,47.8,30.06,NNW,338,3.1,3.1,98,0.00,,---,0.00,VWS V14.01,2013-01-24 07:54:00,